| time (UTC) | temp F | wind direction | speed knots | gust knots | rain 1hr in | rain 24hr in | rain mn in | humidity % | barometer mb |
| 20260507205025 | 87 | 321 | 1.7 | 8.7 | 0.00 | 0.00 | 0.00 | 11 | 1012.7 |
| 20260507204521 | 88 | 20 | 5.2 | 8.7 | 0.00 | 0.00 | 0.00 | 11 | 1012.9 |
| 20260507204017 | 87 | 35 | 5.2 | 9.6 | 0.00 | 0.00 | 0.00 | 11 | 1012.8 |
| 20260507203517 | 87 | 356 | 6.1 | 9.6 | 0.00 | 0.00 | 0.00 | 12 | 1012.9 |
| 20260507203013 | 88 | 328 | 1.7 | 14.8 | 0.00 | 0.00 | 0.00 | 11 | 1012.9 |
| 20260507202529 | 88 | 340 | 5.2 | 14.8 | 0.00 | 0.00 | 0.00 | 12 | 1012.9 |
| 20260507202025 | 86 | 339 | 2.6 | 9.6 | 0.00 | 0.00 | 0.00 | 11 | 1013.0 |
| 20260507201521 | 88 | 42 | 4.3 | 10.4 | 0.00 | 0.00 | 0.00 | 11 | 1013.1 |
| 20260507201016 | 87 | 12 | 6.1 | 10.4 | 0.00 | 0.00 | 0.00 | 11 | 1013.0 |
| 20260507200532 | 87 | 360 | 4.3 | 8.7 | 0.00 | 0.00 | 0.00 | 11 | 1013.1 |
| 20260507200044 | 87 | 2 | 4.3 | 8.7 | 0.00 | 0.00 | 0.00 | 11 | 1013.1 |
| 20260507195525 | 88 | 70 | 3.5 | 7.8 | 0.00 | 0.00 | 0.00 | 11 | 1013.3 |
| 20260507195021 | 87 | 223 | 1.7 | 7.8 | 0.00 | 0.00 | 0.00 | 12 | 1013.3 |
| 20260507194516 | 87 | 202 | 2.6 | 7.8 | 0.00 | 0.00 | 0.00 | 11 | 1013.5 |
| 20260507194013 | 89 | 318 | 1.7 | 3.5 | 0.00 | 0.00 | 0.00 | 11 | 1013.3 |
| 20260507193528 | 87 | 348 | 1.7 | 7.0 | 0.00 | 0.00 | 0.00 | 11 | 1013.6 |
| 20260507193024 | 86 | 331 | 1.7 | 7.8 | 0.00 | 0.00 | 0.00 | 12 | 1013.6 |
| 20260507192524 | 86 | 26 | 2.6 | 5.2 | 0.00 | 0.00 | 0.00 | 12 | 1013.8 |
| 20260507192020 | 88 | 2 | 0.9 | 5.2 | 0.00 | 0.00 | 0.00 | 13 | 1013.8 |
| 20260507191515 | 87 | 9 | 1.7 | 4.3 | 0.00 | 0.00 | 0.00 | 12 | 1013.8 |
| 20260507191031 | 87 | 329 | 0.9 | 4.3 | 0.00 | 0.00 | 0.00 | 12 | 1013.9 |
| 20260507190527 | 88 | 11 | 1.7 | 4.3 | 0.00 | 0.00 | 0.00 | 12 | 1014.1 |
| 20260507190034 | 86 | 36 | 1.7 | 4.3 | 0.00 | 0.00 | 0.00 | 12 | 1014.1 |
| 20260507185516 | 88 | 9 | 1.7 | 4.3 | 0.00 | 0.00 | 0.00 | 13 | 1014.1 |
| 20260507185016 | 86 | 16 | 1.7 | 4.3 | 0.00 | 0.00 | 0.00 | 13 | 1014.3 |
| 20260507184531 | 84 | 66 | 1.7 | 7.0 | 0.00 | 0.00 | 0.00 | 14 | 1014.4 |
| 20260507184027 | 85 | 63 | 4.3 | 7.0 | 0.00 | 0.00 | 0.00 | 14 | 1014.5 |
| 20260507183524 | 87 | 328 | 0.9 | 4.3 | 0.00 | 0.00 | 0.00 | 13 | 1014.6 |
| 20260507183020 | 85 | 325 | 1.7 | 5.2 | 0.00 | 0.00 | 0.00 | 14 | 1014.6 |
| 20260507182516 | 85 | 348 | 1.7 | 6.1 | 0.00 | 0.00 | 0.00 | 15 | 1014.7 |
| 20260507182032 | 84 | 41 | 3.5 | 7.0 | 0.00 | 0.00 | 0.00 | 16 | 1014.7 |
| 20260507181527 | 86 | 352 | 1.7 | 3.5 | 0.00 | 0.00 | 0.00 | 16 | 1014.8 |
| 20260507181027 | 84 | 352 | 1.7 | 7.0 | 0.00 | 0.00 | 0.00 | 16 | 1014.9 |
| 20260507180523 | 83 | 356 | 1.7 | 7.0 | 0.00 | 0.00 | 0.00 | 16 | 1014.9 |
| 20260507180031 | 83 | 9 | 1.7 | 5.2 | 0.00 | 0.00 | 0.00 | 17 | 1014.9 |
| 20260507175532 | 85 | 24 | 1.7 | 4.3 | 0.00 | 0.00 | 0.00 | 16 | 1015.0 |
| 20260507175028 | 82 | 38 | 2.6 | 4.3 | 0.00 | 0.00 | 0.00 | 16 | 1015.0 |
| 20260507174524 | 82 | 64 | 2.6 | 4.3 | 0.00 | 0.00 | 0.00 | 16 | 1015.0 |
| 20260507174020 | 81 | 58 | 1.7 | 4.3 | 0.00 | 0.00 | 0.00 | 17 | 1015.2 |
| 20260507173519 | 82 | 47 | 2.6 | 4.3 | 0.00 | 0.00 | 0.00 | 17 | 1015.3 |
| 20260507173015 | 81 | 132 | 0.9 | 3.5 | 0.00 | 0.00 | 0.00 | 18 | 1015.3 |
| 20260507172531 | 81 | 131 | 2.6 | 3.5 | 0.00 | 0.00 | 0.00 | 18 | 1015.4 |
| 20260507172027 | 83 | 155 | 0.9 | 4.3 | 0.00 | 0.00 | 0.00 | 18 | 1015.4 |
| 20260507171523 | 81 | 219 | 1.7 | 7.0 | 0.00 | 0.00 | 0.00 | 19 | 1015.5 |
| 20260507171019 | 81 | 227 | 2.6 | 7.0 | 0.00 | 0.00 | 0.00 | 19 | 1015.6 |
| 20260507170514 | 80 | 102 | 0.0 | 2.6 | 0.00 | 0.00 | 0.00 | 20 | 1015.5 |
| 20260507170027 | 78 | 104 | 0.9 | 4.3 | 0.00 | 0.00 | 0.00 | 20 | 1015.5 |
| 20260507165528 | 77 | 105 | 2.6 | 4.3 | 0.00 | 0.00 | 0.00 | 21 | 1015.8 |
| 20260507165024 | 77 | 210 | 0.9 | 6.1 | 0.00 | 0.00 | 0.00 | 20 | 1015.7 |
| 20260507164519 | 77 | 113 | 2.6 | 7.0 | 0.00 | 0.00 | 0.00 | 21 | 1015.7 |
| 20260507164015 | 77 | 211 | 0.9 | 7.0 | 0.00 | 0.00 | 0.00 | 20 | 1015.8 |
| 20260507163531 | 77 | 116 | 1.7 | 4.3 | 0.00 | 0.00 | 0.00 | 22 | 1015.8 |
| 20260507163027 | 75 | 126 | 2.6 | 6.1 | 0.00 | 0.00 | 0.00 | 22 | 1015.8 |
| 20260507162527 | 75 | 141 | 1.7 | 6.1 | 0.00 | 0.00 | 0.00 | 23 | 1015.9 |
| 20260507162023 | 75 | 126 | 1.7 | 5.2 | 0.00 | 0.00 | 0.00 | 23 | 1016.0 |
| 20260507161519 | 75 | 210 | 1.7 | 5.2 | 0.00 | 0.00 | 0.00 | 23 | 1016.0 |
| 20260507161015 | 73 | 90 | 3.5 | 7.0 | 0.00 | 0.00 | 0.00 | 25 | 1016.1 |
| 20260507160530 | 73 | 96 | 4.3 | 7.0 | 0.00 | 0.00 | 0.00 | 24 | 1016.2 |
| 20260507160038 | 74 | 92 | 1.7 | 6.1 | 0.00 | 0.00 | 0.00 | 24 | 1016.3 |
| 20260507155519 | 74 | 61 | 0.9 | 2.6 | 0.00 | 0.00 | 0.00 | 24 | 1016.1 |
| 20260507155019 | 74 | 60 | 1.7 | 4.3 | 0.00 | 0.00 | 0.00 | 25 | 1016.3 |
| 20260507154515 | 73 | 61 | 1.7 | 4.3 | 0.00 | 0.00 | 0.00 | 26 | 1016.4 |
| 20260507154031 | 72 | 87 | 1.7 | 6.1 | 0.00 | 0.00 | 0.00 | 26 | 1016.4 |
| 20260507153526 | 72 | 90 | 2.6 | 6.1 | 0.00 | 0.00 | 0.00 | 25 | 1016.4 |
| 20260507153022 | 72 | 85 | 0.9 | 3.5 | 0.00 | 0.00 | 0.00 | 26 | 1016.4 |
| 20260507152518 | 71 | 88 | 1.7 | 3.5 | 0.00 | 0.00 | 0.00 | 27 | 1016.5 |
| 20260507152014 | 69 | 72 | 1.7 | 3.5 | 0.00 | 0.00 | 0.00 | 27 | 1016.4 |
| 20260507151514 | 70 | 58 | 1.7 | 4.3 | 0.00 | 0.00 | 0.00 | 29 | 1016.5 |
| 20260507151031 | 69 | 89 | 1.7 | 4.3 | 0.00 | 0.00 | 0.00 | 28 | 1016.4 |
| 20260507150527 | 68 | 136 | 1.7 | 4.3 | 0.00 | 0.00 | 0.00 | 29 | 1016.5 |
| 20260507150035 | 67 | 141 | 1.7 | 4.3 | 0.00 | 0.00 | 0.00 | 30 | 1016.5 |
| 20260507145516 | 67 | 152 | 0.9 | 4.3 | 0.00 | 0.00 | 0.00 | 30 | 1016.5 |
| 20260507145012 | 67 | 119 | 1.7 | 4.3 | 0.00 | 0.00 | 0.00 | 31 | 1016.5 |
| 20260507144528 | 66 | 118 | 2.6 | 4.3 | 0.00 | 0.00 | 0.00 | 30 | 1016.5 |
| 20260507144024 | 66 | 137 | 0.9 | 4.3 | 0.00 | 0.00 | 0.00 | 33 | 1016.5 |
| 20260507143523 | 65 | 164 | 0.9 | 5.2 | 0.00 | 0.00 | 0.00 | 34 | 1016.6 |
| 20260507143019 | 64 | 148 | 2.6 | 5.2 | 0.00 | 0.00 | 0.00 | 33 | 1016.7 |
| 20260507142514 | 65 | 140 | 1.7 | 5.2 | 0.00 | 0.00 | 0.00 | 34 | 1016.6 |
| 20260507142030 | 64 | 115 | 2.6 | 4.3 | 0.00 | 0.00 | 0.00 | 35 | 1016.6 |
| 20260507141526 | 64 | 125 | 1.7 | 4.3 | 0.00 | 0.00 | 0.00 | 34 | 1016.5 |
| 20260507141022 | 64 | 159 | 0.9 | 5.2 | 0.00 | 0.00 | 0.00 | 35 | 1016.5 |
| 20260507140518 | 64 | 130 | 1.7 | 4.3 | 0.00 | 0.00 | 0.00 | 35 | 1016.5 |
| 20260507140030 | 63 | 159 | 0.9 | 4.3 | 0.00 | 0.00 | 0.00 | 35 | 1016.4 |
| 20260507135531 | 63 | 128 | 1.7 | 4.3 | 0.00 | 0.00 | 0.00 | 36 | 1016.4 |
| 20260507135027 | 62 | 159 | 0.9 | 3.5 | 0.00 | 0.00 | 0.00 | 38 | 1016.5 |
| 20260507134524 | 61 | 142 | 0.9 | 3.5 | 0.00 | 0.00 | 0.00 | 38 | 1016.4 |
| 20260507134020 | 61 | 128 | 0.0 | 1.7 | 0.00 | 0.00 | 0.00 | 40 | 1016.4 |
| 20260507133516 | 60 | 113 | 0.9 | 2.6 | 0.00 | 0.00 | 0.00 | 41 | 1016.4 |
| 20260507133031 | 59 | 111 | 0.9 | 2.6 | 0.00 | 0.00 | 0.00 | 43 | 1016.4 |
| 20260507132531 | 58 | 148 | 0.0 | 3.5 | 0.00 | 0.00 | 0.00 | 44 | 1016.3 |
| 20260507132028 | 58 | 143 | 0.9 | 3.5 | 0.00 | 0.00 | 0.00 | 46 | 1016.3 |
| 20260507131524 | 57 | 146 | 0.0 | 2.6 | 0.00 | 0.00 | 0.00 | 47 | 1016.3 |
| 20260507131020 | 57 | 144 | 0.0 | 3.5 | 0.00 | 0.00 | 0.00 | 48 | 1016.3 |
| 20260507130516 | 56 | 143 | 0.9 | 3.5 | 0.00 | 0.00 | 0.00 | 49 | 1016.2 |
| 20260507130043 | 56 | 143 | 0.0 | 1.7 | 0.00 | 0.00 | 0.00 | 49 | 1016.2 |
| 20260507125525 | 55 | 142 | 0.0 | 0.9 | 0.00 | 0.00 | 0.00 | 50 | 1016.2 |
| 20260507125024 | 55 | 136 | 0.0 | 0.0 | 0.00 | 0.00 | 0.00 | 51 | 1016.1 |
| 20260507124520 | 55 | 136 | 0.0 | 0.0 | 0.00 | 0.00 | 0.00 | 51 | 1016.1 |
| 20260507124016 | 55 | 136 | 0.0 | 0.0 | 0.00 | 0.00 | 0.00 | 51 | 1016.1 |
| 20260507123512 | 55 | 136 | 0.0 | 0.0 | 0.00 | 0.00 | 0.00 | 50 | 1016.0 |
| 20260507123028 | 55 | 136 | 0.0 | 0.0 | 0.00 | 0.00 | 0.00 | 50 | 1016.0 |
| 20260507122524 | 55 | 136 | 0.0 | 0.0 | 0.00 | 0.00 | 0.00 | 50 | 1016.0 |
| 20260507122020 | 55 | 135 | 0.0 | 0.0 | 0.00 | 0.00 | 0.00 | 50 | 1016.0 |
| 20260507121519 | 55 | 136 | 0.0 | 0.9 | 0.00 | 0.00 | 0.00 | 50 | 1016.0 |
| 20260507121015 | 56 | 136 | 0.0 | 0.9 | 0.00 | 0.00 | 0.00 | 48 | 1015.9 |
| 20260507120531 | 56 | 136 | 0.0 | 0.0 | 0.00 | 0.00 | 0.00 | 48 | 1015.9 |
| 20260507120039 | 56 | 136 | 0.0 | 0.9 | 0.00 | 0.00 | 0.00 | 49 | 1015.9 |
| 20260507115521 | 56 | 136 | 0.0 | 1.7 | 0.00 | 0.00 | 0.00 | 48 | 1016.0 |
| 20260507115016 | 56 | 136 | 0.0 | 2.6 | 0.00 | 0.00 | 0.00 | 48 | 1016.0 |
| 20260507114512 | 58 | 204 | 0.9 | 2.6 | 0.00 | 0.00 | 0.00 | 44 | 1016.0 |
| 20260507114012 | 58 | 204 | 0.9 | 3.5 | 0.00 | 0.00 | 0.00 | 45 | 1016.1 |
| 20260507113528 | 57 | 205 | 0.9 | 3.5 | 0.00 | 0.00 | 0.00 | 45 | 1016.1 |
| 20260507113024 | 57 | 206 | 0.0 | 3.5 | 0.00 | 0.00 | 0.00 | 45 | 1016.1 |
| 20260507112520 | 57 | 206 | 0.0 | 3.5 | 0.00 | 0.00 | 0.00 | 45 | 1016.1 |
| 20260507112016 | 58 | 221 | 0.0 | 3.5 | 0.00 | 0.00 | 0.00 | 44 | 1016.1 |
| 20260507111512 | 57 | 293 | 0.0 | 1.7 | 0.00 | 0.00 | 0.00 | 44 | 1016.0 |
| 20260507111028 | 57 | 293 | 0.0 | 1.7 | 0.00 | 0.00 | 0.00 | 44 | 1016.0 |
| 20260507110523 | 56 | 293 | 0.0 | 0.9 | 0.00 | 0.00 | 0.00 | 46 | 1015.9 |
| 20260507110035 | 57 | 293 | 0.0 | 0.9 | 0.00 | 0.00 | 0.00 | 45 | 1015.8 |
| 20260507105516 | 58 | 293 | 0.0 | 0.9 | 0.00 | 0.00 | 0.00 | 44 | 1015.8 |
| 20260507105012 | 57 | 293 | 0.0 | 0.9 | 0.00 | 0.00 | 0.00 | 46 | 1015.9 |
| 20260507104527 | 57 | 293 | 0.0 | 0.9 | 0.00 | 0.00 | 0.00 | 46 | 1015.8 |
| 20260507104023 | 58 | 293 | 0.0 | 0.9 | 0.00 | 0.00 | 0.00 | 45 | 1015.9 |
| 20260507103518 | 58 | 293 | 0.0 | 1.7 | 0.00 | 0.00 | 0.00 | 42 | 1015.9 |
| 20260507103014 | 59 | 293 | 0.0 | 1.7 | 0.00 | 0.00 | 0.00 | 41 | 1015.9 |
| 20260507102514 | 59 | 293 | 0.0 | 1.7 | 0.00 | 0.00 | 0.00 | 42 | 1016.0 |
| 20260507102029 | 59 | 293 | 0.0 | 1.7 | 0.00 | 0.00 | 0.00 | 42 | 1016.0 |
| 20260507101524 | 58 | 293 | 0.9 | 1.7 | 0.00 | 0.00 | 0.00 | 45 | 1016.0 |
| 20260507101020 | 58 | 293 | 0.0 | 0.0 | 0.00 | 0.00 | 0.00 | 44 | 1016.0 |
| 20260507100516 | 58 | 293 | 0.0 | 0.9 | 0.00 | 0.00 | 0.00 | 43 | 1016.1 |
| 20260507100043 | 59 | 293 | 0.0 | 0.9 | 0.00 | 0.00 | 0.00 | 42 | 1016.0 |
| 20260507095525 | 59 | 293 | 0.0 | 0.9 | 0.00 | 0.00 | 0.00 | 41 | 1016.2 |
| 20260507095024 | 59 | 293 | 0.0 | 0.0 | 0.00 | 0.00 | 0.00 | 41 | 1016.2 |
| 20260507094519 | 59 | 293 | 0.0 | 0.9 | 0.00 | 0.00 | 0.00 | 41 | 1016.2 |
| 20260507094015 | 60 | 293 | 0.0 | 1.7 | 0.00 | 0.00 | 0.00 | 39 | 1016.2 |
| 20260507093530 | 60 | 293 | 0.0 | 2.6 | 0.00 | 0.00 | 0.00 | 39 | 1016.2 |
| 20260507093025 | 60 | 293 | 0.0 | 1.7 | 0.00 | 0.00 | 0.00 | 39 | 1016.2 |
| 20260507092520 | 60 | 293 | 0.0 | 0.0 | 0.00 | 0.00 | 0.00 | 38 | 1016.2 |
| 20260507092016 | 61 | 293 | 0.0 | 0.9 | 0.00 | 0.00 | 0.00 | 37 | 1016.2 |
| 20260507091513 | 61 | 293 | 0.0 | 0.9 | 0.00 | 0.00 | 0.00 | 36 | 1016.3 |
| 20260507091029 | 61 | 293 | 0.0 | 0.9 | 0.00 | 0.00 | 0.00 | 35 | 1016.4 |
| 20260507090524 | 62 | 293 | 0.0 | 1.7 | 0.00 | 0.00 | 0.00 | 35 | 1016.3 |
| 20260507090032 | 62 | 293 | 0.0 | 1.7 | 0.00 | 0.00 | 0.00 | 34 | 1016.3 |
| 20260507085513 | 62 | 293 | 0.0 | 1.7 | 0.00 | 0.00 | 0.00 | 34 | 1016.3 |
| 20260507085029 | 62 | 292 | 0.0 | 1.7 | 0.00 | 0.00 | 0.00 | 34 | 1016.3 |
| 20260507084525 | 62 | 292 | 0.0 | 1.7 | 0.00 | 0.00 | 0.00 | 33 | 1016.4 |
| 20260507084020 | 62 | 292 | 0.0 | 2.6 | 0.00 | 0.00 | 0.00 | 34 | 1016.3 |
| 20260507083520 | 62 | 291 | 0.9 | 2.6 | 0.00 | 0.00 | 0.00 | 34 | 1016.3 |
| 20260507083016 | 63 | 290 | 0.0 | 0.9 | 0.00 | 0.00 | 0.00 | 32 | 1016.3 |
| 20260507082512 | 63 | 293 | 0.0 | 1.7 | 0.00 | 0.00 | 0.00 | 31 | 1016.4 |
| 20260507082027 | 63 | 292 | 0.0 | 2.6 | 0.00 | 0.00 | 0.00 | 31 | 1016.4 |
| 20260507081522 | 63 | 292 | 0.0 | 2.6 | 0.00 | 0.00 | 0.00 | 31 | 1016.5 |
| 20260507081018 | 63 | 292 | 0.9 | 3.5 | 0.00 | 0.00 | 0.00 | 31 | 1016.5 |
| 20260507080514 | 64 | 295 | 0.9 | 3.5 | 0.00 | 0.00 | 0.00 | 31 | 1016.4 |
| 20260507080026 | 64 | 294 | 0.9 | 3.5 | 0.00 | 0.00 | 0.00 | 31 | 1016.4 |
| 20260507075527 | 64 | 294 | 0.0 | 1.7 | 0.00 | 0.00 | 0.00 | 31 | 1016.4 |
| 20260507075022 | 64 | 293 | 0.0 | 3.5 | 0.00 | 0.00 | 0.00 | 31 | 1016.3 |
| 20260507074518 | 64 | 295 | 0.0 | 3.5 | 0.00 | 0.00 | 0.00 | 31 | 1016.5 |
| 20260507074014 | 64 | 296 | 0.0 | 1.7 | 0.00 | 0.00 | 0.00 | 31 | 1016.4 |
| 20260507073530 | 64 | 296 | 0.0 | 0.9 | 0.00 | 0.00 | 0.00 | 30 | 1016.4 |
| 20260507073025 | 64 | 296 | 0.0 | 3.5 | 0.00 | 0.00 | 0.00 | 30 | 1016.3 |
| 20260507072525 | 65 | 294 | 0.9 | 3.5 | 0.00 | 0.00 | 0.00 | 29 | 1016.3 |
| 20260507072021 | 64 | 296 | 0.0 | 0.9 | 0.00 | 0.00 | 0.00 | 29 | 1016.5 |
| 20260507071517 | 65 | 296 | 0.0 | 1.7 | 0.00 | 0.00 | 0.00 | 28 | 1016.4 |
| 20260507071012 | 65 | 296 | 0.0 | 1.7 | 0.00 | 0.00 | 0.00 | 28 | 1016.5 |
| 20260507070528 | 64 | 296 | 0.0 | 1.7 | 0.00 | 0.00 | 0.00 | 29 | 1016.4 |
| 20260507070037 | 64 | 296 | 0.0 | 1.7 | 0.00 | 0.00 | 0.00 | 29 | 1016.5 |
| 20260507065518 | 65 | 296 | 0.9 | 1.7 | 0.00 | 0.00 | 0.00 | 29 | 1016.4 |
| 20260507065018 | 65 | 296 | 0.9 | 1.7 | 0.00 | 0.00 | 0.00 | 28 | 1016.3 |
| 20260507064514 | 65 | 296 | 0.0 | 1.7 | 0.00 | 0.00 | 0.00 | 27 | 1016.4 |
| 20260507064029 | 66 | 296 | 0.0 | 2.6 | 0.00 | 0.00 | 0.00 | 28 | 1016.4 |
| 20260507063524 | 66 | 296 | 0.9 | 1.7 | 0.00 | 0.00 | 0.00 | 27 | 1016.4 |
| 20260507063020 | 66 | 296 | 0.0 | 1.7 | 0.00 | 0.00 | 0.00 | 27 | 1016.4 |
| 20260507062516 | 66 | 296 | 0.9 | 1.7 | 0.00 | 0.00 | 0.00 | 26 | 1016.3 |
| 20260507062012 | 67 | 296 | 0.9 | 1.7 | 0.00 | 0.00 | 0.00 | 26 | 1016.3 |
| 20260507061511 | 66 | 296 | 0.9 | 3.5 | 0.00 | 0.00 | 0.00 | 27 | 1016.3 |
| 20260507061027 | 66 | 296 | 0.9 | 5.2 | 0.00 | 0.00 | 0.00 | 27 | 1016.3 |
| 20260507060523 | 67 | 299 | 0.9 | 5.2 | 0.00 | 0.00 | 0.00 | 26 | 1016.3 |
| 20260507060030 | 66 | 288 | 0.9 | 3.5 | 0.00 | 0.00 | 0.00 | 26 | 1016.3 |
| 20260507055511 | 67 | 290 | 0.9 | 3.5 | 0.00 | 0.00 | 0.00 | 26 | 1016.3 |
| 20260507055027 | 67 | 290 | 0.9 | 2.6 | 0.00 | 0.00 | 0.00 | 26 | 1016.3 |
| 20260507054523 | 67 | 290 | 0.9 | 3.5 | 0.00 | 0.00 | 0.00 | 26 | 1016.3 |
| 20260507054019 | 67 | 289 | 0.9 | 3.5 | 0.00 | 0.00 | 0.00 | 25 | 1016.4 |
| 20260507053518 | 67 | 288 | 0.9 | 3.5 | 0.00 | 0.00 | 0.00 | 25 | 1016.4 |
| 20260507053014 | 67 | 287 | 0.9 | 3.5 | 0.00 | 0.00 | 0.00 | 25 | 1016.3 |
| 20260507052530 | 67 | 290 | 0.9 | 3.5 | 0.00 | 0.00 | 0.00 | 25 | 1016.4 |
| 20260507052026 | 67 | 290 | 1.7 | 5.2 | 0.00 | 0.00 | 0.00 | 25 | 1016.2 |
| 20260507051522 | 68 | 286 | 0.9 | 6.1 | 0.00 | 0.00 | 0.00 | 25 | 1016.3 |
| 20260507051018 | 68 | 285 | 0.9 | 6.1 | 0.00 | 0.00 | 0.00 | 25 | 1016.3 |
| 20260507050513 | 68 | 288 | 1.7 | 3.5 | 0.00 | 0.00 | 0.00 | 25 | 1016.3 |
| 20260507050025 | 68 | 290 | 0.9 | 2.6 | 0.00 | 0.00 | 0.00 | 26 | 1016.2 |
| 20260507045527 | 68 | 290 | 0.9 | 1.7 | 0.00 | 0.00 | 0.00 | 25 | 1016.1 |
| 20260507045023 | 68 | 290 | 0.9 | 1.7 | 0.00 | 0.00 | 0.00 | 25 | 1016.1 |
| 20260507044518 | 68 | 290 | 0.0 | 2.6 | 0.00 | 0.00 | 0.00 | 25 | 1016.0 |
| 20260507044014 | 69 | 290 | 0.0 | 2.6 | 0.00 | 0.00 | 0.00 | 24 | 1016.0 |
| 20260507043530 | 69 | 290 | 0.0 | 6.1 | 0.00 | 0.00 | 0.00 | 24 | 1016.0 |
| 20260507043026 | 69 | 296 | 0.9 | 6.1 | 0.00 | 0.00 | 0.00 | 24 | 1015.8 |
| 20260507042525 | 69 | 293 | 1.7 | 3.5 | 0.00 | 0.00 | 0.00 | 24 | 1015.8 |
| 20260507042021 | 69 | 296 | 0.0 | 3.5 | 0.00 | 0.00 | 0.00 | 24 | 1015.8 |
| 20260507041517 | 70 | 292 | 0.9 | 4.3 | 0.00 | 0.00 | 0.00 | 23 | 1015.8 |
| 20260507041013 | 70 | 292 | 1.7 | 4.3 | 0.00 | 0.00 | 0.00 | 23 | 1015.8 |
| 20260507040528 | 70 | 294 | 0.9 | 4.3 | 0.00 | 0.00 | 0.00 | 23 | 1015.8 |
| 20260507040036 | 70 | 298 | 0.9 | 4.3 | 0.00 | 0.00 | 0.00 | 23 | 1015.7 |
| 20260507035517 | 70 | 293 | 0.9 | 3.5 | 0.00 | 0.00 | 0.00 | 23 | 1015.7 |
| 20260507035017 | 71 | 302 | 1.7 | 3.5 | 0.00 | 0.00 | 0.00 | 22 | 1015.7 |
| 20260507034533 | 71 | 292 | 0.9 | 4.3 | 0.00 | 0.00 | 0.00 | 22 | 1015.5 |
| 20260507034028 | 71 | 299 | 1.7 | 4.3 | 0.00 | 0.00 | 0.00 | 22 | 1015.6 |
| 20260507033524 | 71 | 304 | 0.9 | 2.6 | 0.00 | 0.00 | 0.00 | 22 | 1015.4 |
| 20260507033020 | 71 | 311 | 0.9 | 2.6 | 0.00 | 0.00 | 0.00 | 23 | 1015.5 |
| 20260507032516 | 71 | 289 | 0.9 | 2.6 | 0.00 | 0.00 | 0.00 | 23 | 1015.4 |
| 20260507032031 | 71 | 288 | 0.9 | 5.2 | 0.00 | 0.00 | 0.00 | 22 | 1015.4 |
| 20260507031527 | 72 | 286 | 1.7 | 5.2 | 0.00 | 0.00 | 0.00 | 22 | 1015.2 |
| 20260507031027 | 72 | 296 | 0.9 | 3.5 | 0.00 | 0.00 | 0.00 | 22 | 1015.3 |
| 20260507030522 | 72 | 300 | 0.9 | 3.5 | 0.00 | 0.00 | 0.00 | 22 | 1015.2 |
| 20260507030030 | 72 | 303 | 0.9 | 3.5 | 0.00 | 0.00 | 0.00 | 22 | 1015.1 |
| 20260507025531 | 72 | 308 | 0.9 | 2.6 | 0.00 | 0.00 | 0.00 | 21 | 1015.1 |
| 20260507025027 | 73 | 312 | 0.0 | 4.3 | 0.00 | 0.00 | 0.00 | 21 | 1015.0 |
| 20260507024523 | 73 | 312 | 0.9 | 4.3 | 0.00 | 0.00 | 0.00 | 21 | 1014.9 |
| 20260507024018 | 73 | 327 | 0.9 | 4.3 | 0.00 | 0.00 | 0.00 | 21 | 1014.8 |
| 20260507023518 | 73 | 295 | 0.9 | 4.3 | 0.00 | 0.00 | 0.00 | 21 | 1014.8 |
| 20260507023014 | 74 | 326 | 0.9 | 6.1 | 0.00 | 0.00 | 0.00 | 20 | 1014.8 |
| 20260507022530 | 74 | 323 | 0.9 | 2.6 | 0.00 | 0.00 | 0.00 | 20 | 1014.8 |
| 20260507022025 | 74 | 320 | 0.9 | 1.7 | 0.00 | 0.00 | 0.00 | 21 | 1014.7 |
| 20260507021521 | 74 | 320 | 0.9 | 2.6 | 0.00 | 0.00 | 0.00 | 20 | 1014.7 |
| 20260507021017 | 74 | 321 | 0.9 | 3.5 | 0.00 | 0.00 | 0.00 | 20 | 1014.7 |
| 20260507020533 | 75 | 298 | 0.9 | 4.3 | 0.00 | 0.00 | 0.00 | 20 | 1014.7 |
| 20260507020045 | 75 | 307 | 0.9 | 4.3 | 0.00 | 0.00 | 0.00 | 20 | 1014.6 |
| 20260507015526 | 75 | 348 | 0.0 | 4.3 | 0.00 | 0.00 | 0.00 | 21 | 1014.4 |
| 20260507015022 | 76 | 299 | 1.7 | 4.3 | 0.00 | 0.00 | 0.00 | 19 | 1014.5 |
| 20260507014517 | 76 | 326 | 0.9 | 4.3 | 0.00 | 0.00 | 0.00 | 19 | 1014.5 |
| 20260507014033 | 76 | 345 | 0.9 | 6.1 | 0.00 | 0.00 | 0.00 | 20 | 1014.5 |
| 20260507013021 | 76 | 324 | 0.9 | 4.3 | 0.00 | 0.00 | 0.00 | 19 | 1014.6 |
| 20260507012520 | 76 | 336 | 0.9 | 4.3 | 0.00 | 0.00 | 0.00 | 19 | 1014.6 |
| 20260507012016 | 77 | 317 | 0.9 | 4.3 | 0.00 | 0.00 | 0.00 | 20 | 1014.5 |
| 20260507011532 | 77 | 298 | 1.7 | 4.3 | 0.00 | 0.00 | 0.00 | 19 | 1014.5 |
| 20260507010524 | 77 | 356 | 2.6 | 6.1 | 0.00 | 0.00 | 0.00 | 20 | 1014.5 |
| 20260507010031 | 77 | 354 | 0.9 | 4.3 | 0.00 | 0.00 | 0.00 | 19 | 1014.6 |
| 20260507005532 | 78 | 312 | 1.7 | 4.3 | 0.00 | 0.00 | 0.00 | 19 | 1014.6 |
| 20260507005028 | 78 | 294 | 0.9 | 7.8 | 0.00 | 0.00 | 0.00 | 18 | 1014.5 |
| 20260507004528 | 78 | 290 | 3.5 | 7.8 | 0.00 | 0.00 | 0.00 | 19 | 1014.6 |
| 20260507004024 | 79 | 352 | 0.9 | 7.8 | 0.00 | 0.00 | 0.00 | 19 | 1014.5 |
| 20260507003520 | 79 | 273 | 1.7 | 7.8 | 0.00 | 0.00 | 0.00 | 19 | 1014.5 |
| 20260507003015 | 79 | 294 | 1.7 | 7.8 | 0.00 | 0.00 | 0.00 | 18 | 1014.5 |
| 20260507002531 | 79 | 277 | 1.7 | 7.8 | 0.00 | 0.00 | 0.00 | 18 | 1014.5 |
| 20260507002027 | 78 | 285 | 3.5 | 7.0 | 0.00 | 0.00 | 0.00 | 18 | 1014.4 |
| 20260507001523 | 79 | 302 | 2.6 | 6.1 | 0.00 | 0.00 | 0.00 | 18 | 1014.4 |
| 20260507001023 | 79 | 344 | 0.9 | 5.2 | 0.00 | 0.00 | 0.00 | 19 | 1014.6 |
| 20260507000518 | 79 | 1 | 0.9 | 6.1 | 0.00 | 0.00 | 0.00 | 18 | 1014.5 |
| 20260507000045 | 80 | 335 | 1.7 | 6.1 | 0.00 | 0.00 | 0.00 | 18 | 1014.5 |
| 20260506235526 | 80 | 298 | 1.7 | 7.8 | 0.00 | 0.00 | 0.00 | 18 | 1014.5 |
| 20260506235022 | 79 | 283 | 2.6 | 7.8 | 0.00 | 0.00 | 0.00 | 17 | 1014.5 |
| 20260506234518 | 80 | 290 | 2.6 | 7.0 | 0.00 | 0.00 | 0.00 | 17 | 1014.5 |
| 20260506234013 | 80 | 292 | 3.5 | 7.0 | 0.00 | 0.00 | 0.00 | 17 | 1014.4 |
| 20260506233532 | 80 | 273 | 1.7 | 7.0 | 0.00 | 0.00 | 0.00 | 17 | 1014.4 |
| 20260506233028 | 80 | 353 | 2.6 | 6.1 | 0.00 | 0.00 | 0.00 | 17 | 1014.4 |
| 20260506232026 | 80 | 19 | 1.7 | 5.2 | 0.00 | 0.00 | 0.00 | 18 | 1014.5 |
| 20260506231522 | 80 | 31 | 2.6 | 9.6 | 0.00 | 0.00 | 0.00 | 18 | 1014.5 |
| 20260506231018 | 79 | 333 | 3.5 | 9.6 | 0.00 | 0.00 | 0.00 | 18 | 1014.6 |
| 20260506230514 | 78 | 358 | 3.5 | 6.1 | 0.00 | 0.00 | 0.00 | 18 | 1014.7 |
| 20260506230043 | 80 | 31 | 2.6 | 5.2 | 0.00 | 0.00 | 0.00 | 18 | 1014.8 |
| 20260506225524 | 80 | 332 | 0.9 | 3.5 | 0.00 | 0.00 | 0.00 | 18 | 1014.8 |
| 20260506225023 | 79 | 309 | 0.9 | 3.5 | 0.00 | 0.00 | 0.00 | 19 | 1014.7 |
| 20260506224519 | 79 | 342 | 0.9 | 7.0 | 0.00 | 0.00 | 0.00 | 18 | 1014.8 |
| 20260506224014 | 79 | 2 | 3.5 | 7.0 | 0.00 | 0.00 | 0.00 | 19 | 1014.8 |
| 20260506223530 | 80 | 281 | 1.7 | 6.1 | 0.00 | 0.00 | 0.00 | 18 | 1014.7 |
| 20260506223026 | 81 | 276 | 2.6 | 5.2 | 0.00 | 0.00 | 0.00 | 17 | 1014.8 |
| 20260506222521 | 80 | 293 | 1.7 | 7.8 | 0.00 | 0.00 | 0.00 | 16 | 1014.9 |
| 20260506222017 | 81 | 312 | 3.5 | 8.7 | 0.00 | 0.00 | 0.00 | 18 | 1014.9 |
| 20260506221517 | 79 | 29 | 3.5 | 8.7 | 0.00 | 0.00 | 0.00 | 19 | 1014.9 |
| 20260506221032 | 80 | 301 | 3.5 | 7.8 | 0.00 | 0.00 | 0.00 | 19 | 1015.0 |
| 20260506220527 | 81 | 285 | 2.6 | 6.1 | 0.00 | 0.00 | 0.00 | 19 | 1015.1 |
| 20260506220036 | 81 | 250 | 3.5 | 6.1 | 0.00 | 0.00 | 0.00 | 19 | 1015.1 |
| 20260506215020 | 80 | 352 | 0.9 | 7.8 | 0.00 | 0.00 | 0.00 | 20 | 1015.3 |
| 20260506214517 | 78 | 9 | 2.6 | 6.1 | 0.00 | 0.00 | 0.00 | 22 | 1015.4 |
| 20260506214013 | 79 | 213 | 1.7 | 5.2 | 0.00 | 0.00 | 0.00 | 20 | 1015.4 |
| 20260506213514 | 78 | 36 | 0.9 | 5.2 | 0.00 | 0.00 | 0.00 | 22 | 1015.5 |
| 20260506213021 | 80 | 293 | 3.5 | 7.0 | 0.00 | 0.00 | 0.00 | 21 | 1015.5 |
| 20260506212517 | 80 | 287 | 2.6 | 7.0 | 0.00 | 0.00 | 0.00 | 20 | 1015.6 |
| 20260506212013 | 79 | 312 | 2.6 | 7.0 | 0.00 | 0.00 | 0.00 | 21 | 1015.6 |
| 20260506211528 | 78 | 24 | 3.5 | 7.0 | 0.00 | 0.00 | 0.00 | 20 | 1015.7 |
| 20260506211024 | 79 | 290 | 2.6 | 7.0 | 0.00 | 0.00 | 0.00 | 20 | 1015.8 |
| 20260506210028 | 77 | 19 | 0.9 | 5.2 | 0.00 | 0.00 | 0.00 | 23 | 1016.0 |